This is the latest recevied weather packets stored in our database for station/object AD8BW. If no packets are shown the sender has not sent any weather packets the latest 10 day(s).
| Time | Temp. | Humidity | Pressure | Rain* | Wind** | Luminosity | Snow |
|---|---|---|---|---|---|---|---|
| 1777990470 | 11.11° C | 73% | 1004.9 hPa | 0 mm | - | 77 W/m² | - |
| 1777989869 | 11.67° C | 72% | 1005 hPa | 0 mm | - | 33 W/m² | - |
| 1777989268 | 11.67° C | 70% | 1004.5 hPa | 0 mm | - | 65 W/m² | - |
| 1777988679 | 11.67° C | 71% | 1004.2 hPa | 0 mm | - | 181 W/m² | - |
| 1777988077 | 11.11° C | 73% | 1003.6 hPa | 0 mm | - | 67 W/m² | - |
| 1777987465 | 11.11° C | 72% | 1003.9 hPa | 0 mm | - | 16 W/m² | - |
| 1777986862 | 11.11° C | 72% | 1003.3 hPa | 0 mm | - | 51 W/m² | - |
| 1777986264 | 11.67° C | 72% | 1003.1 hPa | 0 mm | - | 125 W/m² | - |
| 1777985664 | 11.67° C | 72% | 1003.2 hPa | 0 mm | - | 160 W/m² | - |
| 1777985062 | 11.67° C | 75% | 1003.1 hPa | 0 mm | - | 139 W/m² | - |
| 1777984463 | 11.67° C | 76% | 1003.2 hPa | 0 mm | - | 113 W/m² | - |
| 1777983862 | 11.67° C | 78% | 1002.9 hPa | 0 mm | - | 172 W/m² | - |
| 1777983266 | 12.22° C | 80% | 1002.8 hPa | 0 mm | - | 193 W/m² | - |
| 1777982657 | 12.78° C | 79% | 1002.8 hPa | 0 mm | - | 46 W/m² | - |
| 1777982055 | 13.33° C | 78% | 1002.4 hPa | 0 mm | - | 70 W/m² | - |
| 1777981458 | 13.33° C | 78% | 1002.4 hPa | 0 mm | - | 25 W/m² | - |
| 1777980856 | 13.33° C | 79% | 1002 hPa | 0 mm | - | 23 W/m² | - |
| 1777980253 | 13.33° C | 80% | 1001.7 hPa | 0 mm | - | 40 W/m² | - |
| 1777979656 | 13.33° C | 82% | 1001.4 hPa | 0 mm | - | 44 W/m² | - |
| 1777979053 | 13.33° C | 83% | 1001.2 hPa | 0 mm | - | 23 W/m² | - |
| 1777978454 | 13.33° C | 83% | 1001.1 hPa | 0 mm | - | 14 W/m² | - |
| 1777977856 | 13.33° C | 84% | 1001.2 hPa | 0 mm | - | 7 W/m² | - |
| 1777977256 | 13.33° C | 84% | 1000.9 hPa | 0 mm | - | 0 W/m² | - |
| 1777976650 | 13.33° C | 84% | 1000.4 hPa | 0 mm | - | 0 W/m² | - |
| 1777976047 | 13.33° C | 84% | 1000.2 hPa | 0 mm | - | 0 W/m² | - |
* Rain latest hour (hover to see other rain measurements)
** Current wind speed in m/s (hover to see current wind gust speed)